Location: Kra?nica
(53.4833°N, 14.6167°E)
Time: 17:45:01
(UTC+00:00)

Cosmos 1733 Rocket - Pass Details

Date: 23 May 2024
Orbit: 600 x 624 km, 82.5° (Epoch: 13 June)

Event Time Altitude Azimuth Distance (km) Brightness Sun altitude
Rises 00:23:31 0° 341° (NNW) 2,867 7.3 -13.6°
Reaches altitude 10° 00:25:56 10° 331° (NNW) 1,960 6.2 -13.5°
Maximum altitude 00:29:42 30° 270° (W) 1,099 4.1 -13.3°
Enters shadow 00:31:57 19° 224° (SW) 1,465 4.4 -13.2°
